Location: Svitavy
(49.7500°N, 16.4667°E)
Time: 20:30:41
(UTC+01:00)

ISS - Visible Passes

Search period start: 07 December 2025 00:00
Search period end: 17 December 2025 00:00
Orbit: 416 x 421 km, 51.6° (Epoch: 07 December)

Date Brightness Start Highest point End Pass type
(mag) Time Alt. Az. Time Alt. Az. Time Alt. Az.
12 Dec -0.5 06:27:48 10° S 06:29:42 14° SE 06:31:35 10° ESE visible
14 Dec -1.7 06:27:13 10° SSW 06:30:12 30° SE 06:33:12 10° E visible
15 Dec -1.2 05:39:47 10° SSW 05:42:21 21° SE 05:44:57 10° E visible
16 Dec -0.9 04:53:45 13° SSE 04:54:32 14° SE 04:56:20 10° ESE visible
16 Dec -3.2 06:27:27 10° SW 06:30:46 59° SSE 06:34:06 10° ENE visible
